Home   Weather   Kralendijk   Past weeks

Flag for Caribbean Netherlands Past Weather in Kralendijk, Bonaire, Caribbean Netherlands — Yesterday and Last 2 Weeks

Now
82 °F

Passing clouds.


Feels Like: 92 °F
Forecast: 78 / 85 °F
Wind: 5 mph from North

Location: Hato Airport - Curacao

Current Time: Sep 29, 2016 at 2:50:55 AM

Latest Report: Sep 29, 2016 at 2:00 AM


Visibility: N/A

Pressure: 29.83 "Hg

Humidity: 89%

Dew Point: 79 °F

Location of KralendijkLocation

Past Weather in Kralendijk — Graph

°F

Kralendijk Temperature Yesterday

Maximum temperature yesterday: 91 °F (at 12:00 PM)
Minimum temperature yesterday: 81 °F (at 6:00 AM)
Average temperature yesterday: 87 °F

High & Low Weather Summary for the Past Weeks

 TemperatureHumidityPressure
High95 °F (Sep 19, 2:00 PM)94% (Sep 14, 1:00 PM)29.98 "Hg (Sep 14, 1:00 PM)
Low79 °F (Sep 14, 1:00 PM)50% (Sep 19, 2:00 PM)29.77 "Hg (Sep 20, 5:00 PM)
Average85 °F77%29.89 "Hg
* Reported Sep 14 2:00 AM — Sep 29 2:00 AM, Kralendijk, Weather by CustomWeather, © 2016

Note: Actual official high and low records may vary slightly from our data, if they occured in-between our weather recording intervals... More about our weather records

Advertising

Kralendijk Weather History for the Previous 24 Hours

Scroll right to see more
 ConditionsComfort  
Time TempWeatherWind HumidityBarometerVisibility
2:00 AM
Thu, Sep 29
82 °FPassing clouds.5 mph89%29.83 "HgN/A
1:00 AM84 °FPassing clouds.7 mph84%29.86 "HgN/A
12:00 AM84 °FPassing clouds.9 mph84%29.89 "HgN/A
10:00 PM
Wed, Sep 28
84 °FClear.8 mph84%29.92 "Hg10 mi
9:00 PM84 °FPassing clouds.9 mph84%29.89 "HgN/A
8:00 PM84 °FPassing clouds.10 mph84%29.86 "HgN/A
7:00 PM84 °FPassing clouds.9 mph79%29.86 "HgN/A
6:00 PM86 °FPassing clouds.10 mph79%29.83 "HgN/A
5:00 PM88 °FPassing clouds.9 mph75%29.83 "HgN/A
4:00 PM90 °FPassing clouds.8 mph71%29.86 "HgN/A
3:00 PM90 °FPassing clouds.10 mph71%29.86 "HgN/A
2:00 PM91 °FPassing clouds.9 mph67%29.89 "HgN/A
1:00 PM91 °FScattered clouds.9 mph67%29.92 "HgN/A
12:00 PM91 °FPassing clouds.10 mph67%29.95 "HgN/A
11:00 AM90 °FScattered clouds.10 mph71%29.98 "HgN/A
10:00 AM90 °FScattered clouds.10 mph71%29.98 "HgN/A
9:00 AM88 °FScattered clouds.10 mph75%29.95 "HgN/A
8:00 AM86 °FScattered clouds.10 mph79%29.95 "HgN/A
7:00 AM84 °FPassing clouds.9 mph79%29.92 "HgN/A
6:00 AM81 °FPassing clouds.7 mph89%29.89 "HgN/A
5:00 AM82 °FPassing clouds.7 mph89%29.89 "HgN/A
Weather by CustomWeather, © 2016

See weather overviewHow to use our weather pages